Flag for Australia Weather past 2 weeks in Bendigo, Victoria, Australia

Now
51 °F

Overcast.


Feels Like: 48 °F
Forecast: 44 / 53 °F
Wind: 8 mph from Northwest

Location: Bendigo Airport Aws

Current Time: May 30, 2015 at 10:57:14 AM

Latest Report: May 30, 2015 at 9:00 AM


Visibility: N/A

Pressure: 30.19 "Hg

Humidity: 79%

Dew point: 45 °F

Location of BendigoLocation

Historic Weather in Bendigo — Graph

°F

Bendigo temperature yesterday

Maximum temperature yesterday: 56 °F (at 2:00 PM)
Minimum temperature yesterday: 38 °F (at 6:00 AM)
Average temperature yesterday: 50 °F

Past Weeks' High & Low Weather Summary

 TemperatureHumidityPressure
High66 °F (May 17, 3:00 PM)100% (May 17, 8:00 AM)30.61 "Hg (May 17, 8:00 AM)
Low31 °F (May 24, 8:00 AM)46% (May 17, 3:00 PM)29.81 "Hg (May 19, 5:00 PM)
Average50 °F81%30.28 "Hg
* Reported May 15 9:00 AM — May 30 9:00 AM, Bendigo, Weather by CustomWeather, © 2015

Note: Actual official high and low records may vary slightly from our data, if they occured in-between our weather recording intervals... More about our weather records

Advertising

Bendigo weather history for previous 24 hours

 ConditionsComfort  
Time TempWeatherWind HumidityBarometerVisibility
9:00 AM
Sat, May 30
51 °FOvercast.8 mph79%30.19 "HgN/A
8:00 AM49 °FCool.5 mph88%30.19 "HgN/A
6:00 AM48 °FOvercast.No wind90%30.17 "HgN/A
5:00 AM48 °FCool.3 mph88%30.17 "HgN/A
3:00 AM50 °FOvercast.6 mph81%30.17 "HgN/A
2:00 AM51 °FCool.5 mph79%30.18 "HgN/A
12:00 AM51 °FOvercast.2 mph77%30.21 "HgN/A
11:00 PM
Fri, May 29
50 °FCool.1 mph77%30.22 "HgN/A
9:00 PM52 °FOvercast.2 mph73%30.21 "HgN/A
8:00 PM51 °FCool.No wind78%30.21 "HgN/A
6:00 PM54 °FOvercast.No wind63%30.20 "HgN/A
5:00 PM55 °FCool.5 mph59%30.19 "HgN/A
3:00 PM56 °FPartly sunny.9 mph56%30.17 "HgN/A
2:00 PM56 °FRefreshingly cool.1 mph60%30.17 "HgN/A
12:00 PM56 °FScattered clouds.9 mph61%30.20 "HgN/A
11:00 AM54 °FCool.8 mph72%30.22 "HgN/A
Weather by CustomWeather, © 2015

See weather overviewHow to use our weather pages